Home > Time Zones > World Clock > Weather > Norway > Gran > Past weeks

Flag for Norway Weather past 2 weeks in Gran, Norway

Now
61 °F

Fog.


Feels Like: 61 °F
Forecast: 56 / 69 °F
Wind: 2 mph from North

Location: Oslo Gardermoen Airport

Current Time: Jul 28, 2014 at 9:28:10 AM

Latest Report: Jul 28, 2014 at 8:50 AM


Visibility: 4 mi

Pressure: 29.95 "Hg

Humidity: 88%

Dew point: 57 °F

Location of GranLocation

Historic Weather in Gran — Graph

°F

Gran temperature yesterday

Maximum temperature yesterday: 73 °F (at 11:50 AM)
Minimum temperature yesterday: 61 °F (at 2:50 AM)
Average temperature yesterday: 66 °F

Past Weeks' High & Low Weather Summary

 TemperatureHumidityPressure
High88 °F (Jul 23, 4:50 PM)100% (Jul 16, 12:50 AM)30.33 "Hg (Jul 16, 12:50 AM)
Low50 °F (Jul 18, 3:20 AM)24% (Jul 23, 6:50 PM)29.68 "Hg (Jul 14, 1:20 AM)
Average68 °F65%30.04 "Hg
* Reported Jul 13 8:20 AM — Jul 28 8:20 AM, Gran, Weather by CustomWeather, © 2014

Note: Actual official high and low records may vary slightly from our data, if they occured in-between our weather recording intervals... More about our weather records

Advertising

Gran weather history for previous 24 hours

 ConditionsComfort  
Time TempWeatherWind HumidityBarometerVisibility
8:20 AM
Jul 28
61 °FFog.3 mph88%29.95 "Hg2 mi
7:50 AM59 °FBroken clouds.3 mph94%29.95 "Hg2 mi
7:20 AM59 °FFog.3 mph94%29.95 "HgN/A
6:50 AM57 °FScattered clouds.2 mph94%29.95 "HgN/A
6:20 AM55 °FScattered clouds.3 mph94%29.95 "HgN/A
5:50 AM55 °FScattered clouds.2 mph94%29.95 "HgN/A
5:20 AM55 °FPassing clouds.No wind94%29.95 "HgN/A
4:50 AM55 °FLight fog.No wind94%29.95 "HgN/A
4:20 AM55 °FLight fog.2 mph94%29.95 "HgN/A
3:50 AM55 °FLight fog.1 mph94%29.95 "HgN/A
3:20 AM55 °FLight fog.1 mph94%29.95 "HgN/A
2:50 AM57 °FPassing clouds.2 mph88%29.95 "HgN/A
2:20 AM57 °FPassing clouds.1 mph94%29.95 "HgN/A
1:50 AM57 °FClear.2 mph94%29.95 "Hg10 mi
1:20 AM59 °FPassing clouds.No wind88%29.95 "HgN/A
12:50 AM61 °FPassing clouds.2 mph88%29.98 "HgN/A
12:20 AM59 °FClear.2 mph88%29.95 "Hg10 mi
11:50 PM
Jul 27
61 °FClear.2 mph83%29.95 "Hg10 mi
11:20 PM63 °FClear.2 mph77%29.95 "Hg10 mi
10:50 PM63 °FSunny.2 mph83%29.95 "Hg10 mi
10:20 PM64 °FSunny.1 mph78%29.95 "Hg10 mi
9:50 PM64 °FSunny.2 mph78%29.95 "Hg10 mi
9:20 PM64 °FSunny.5 mph78%29.95 "Hg10 mi
8:50 PM66 °FSunny.6 mph78%29.92 "Hg10 mi
8:20 PM68 °FPassing clouds.5 mph73%29.92 "HgN/A
7:50 PM68 °FScattered showers. Passing clouds.5 mph73%29.92 "HgN/A
7:20 PM68 °FScattered clouds.7 mph73%29.92 "HgN/A
6:50 PM70 °FPartly sunny.3 mph69%29.95 "HgN/A
6:20 PM70 °FSunny.2 mph64%29.92 "Hg10 mi
5:50 PM70 °FSunny.2 mph73%29.92 "Hg10 mi
5:20 PM66 °FPartly sunny.1 mph73%29.95 "HgN/A
4:50 PM64 °FThundershowers. Passing clouds.3 mph78%29.95 "HgN/A
4:20 PM64 °FThundershowers. Broken clouds.7 mph88%29.98 "HgN/A
3:50 PM66 °FThundershowers. Partly sunny.6 mph88%29.95 "HgN/A
3:20 PM66 °FThundershowers. Broken clouds.6 mph83%29.98 "HgN/A
2:50 PM66 °FThundershowers. Broken clouds.7 mph83%29.95 "HgN/A
2:20 PM70 °FThunderstorms. Partly sunny.6 mph69%29.98 "HgN/A
1:50 PM72 °FThundershowers. Broken clouds.3 mph65%29.98 "HgN/A
1:20 PM73 °FThundershowers. Partly sunny.5 mph57%29.98 "HgN/A
12:50 PM73 °FScattered showers. Partly sunny.5 mph57%29.98 "HgN/A
12:20 PM73 °FPartly sunny.5 mph57%29.98 "HgN/A
11:50 AM73 °FBroken clouds.2 mph61%30.01 "HgN/A
11:20 AM72 °FSunny.3 mph61%30.01 "Hg10 mi
10:50 AM68 °FSunny.2 mph78%30.01 "Hg10 mi
10:20 AM68 °FPassing clouds.3 mph73%30.01 "HgN/A
9:50 AM68 °FPassing clouds.5 mph69%30.01 "HgN/A
9:20 AM66 °FSunny.1 mph78%30.01 "Hg10 mi
Weather by CustomWeather, © 2014

See weather overviewHow to use our weather pages